Location: Unspecified
(0.0000°N, 0.0000°E)
Time: 15:34:09
(UTC+00:00)

SR - Visible Passes

Search period start: 22 December 2014 00:00
Search period end: 01 January 2015 00:00
Orbit: 579 x 883 km, 66.7° (Epoch: 22 December)

Date Brightness Start Highest point End Pass type
(mag) Time Alt. Az. Time Alt. Az. Time Alt. Az.
23 Dec ? 21:07:47 10° S 21:08:00 11° S 21:08:00 11° S visible
24 Dec ? 20:20:13 10° SSE 20:21:10 14° SSE 20:21:10 14° SSE visible
25 Dec ? 21:12:40 10° SSW 21:13:55 17° SW 21:13:55 17° SW visible
26 Dec ? 20:24:07 10° S 20:27:13 32° S 20:27:13 32° S visible
27 Dec ? 19:36:32 10° SSE 19:40:34 26° ESE 19:40:34 26° ESE visible
27 Dec ? 21:18:32 10° SW 21:20:06 17° WSW 21:20:06 17° WSW visible
28 Dec ? 18:51:20 10° SE 18:52:47 11° ESE 18:54:00 10° E visible
28 Dec ? 20:28:58 10° SSW 20:33:32 49° WSW 20:33:32 49° WSW visible
29 Dec ? 19:40:24 10° S 19:46:13 61° ESE 19:47:02 55° ENE visible
30 Dec ? 18:52:48 10° SSE 18:57:39 27° ESE 19:00:35 18° ENE visible
30 Dec ? 20:34:48 10° SW 20:39:35 26° WNW 20:40:08 25° WNW visible
31 Dec ? 19:45:13 10° SSW 19:51:01 59° WNW 19:53:44 31° N visible
